PLEIADES NEO 3

Last updated on Mon Jun 22 2026 00:02:52 GMT+0000 (Coordinated Universal Time)

1 48268U 21034A 26172.50769237 .00001535 00000+0 20169-3 0 9999 2 48268 97.8927 247.2126 0001403 91.9001 268.2372 14.81675289278293
UTC large
Height (km)
Speed (km/s)
/
Latitude / Longitude
Inclination (degrees)
Orbital Period (minutes)
Azimuth
Elevation
Range (km)
Doppler Factor

Next 0 passes for location: London (51.5072 / 0.1276)

No passes found over London.
PLEIADES NEO 3